User: anonymous   Login
Location: Irma
(52.9170°N, 111.2330°W)
Time: 12:41:18
(UTC-06:00)
Language:

deb Chang Zheng 4 - Orbit

View from above orbital plane
View from above orbital plane
View from above satellite
View from above satellite

Ground track
Ground track

The orbit data is extracted from the following two-line orbital elements,

1 20847U 90081K   16273.16682467  .00004598  00000-0  62762-3 0  9990
2 20847  98.5527 134.8846 0016469 175.0790 185.0584 14.79078141367209
Epoch (UTC): 29 September 2016 04:00:13
Eccentricity: 0.0016469
inclination: 98.5527°
perigee height: 620 km
apogee height: 644 km
right ascension of ascending node: 134.8846°
argument of perigee: 175.0790°
revolutions per day: 14.79078141
mean anomaly at epoch: 185.0584°
orbit number at epoch: 36720

The dashed part of the orbit path shows where the satellite is in the earth's shadow,  

DLR